Left ArrowRight Arrow

38.20091, -84.87328

Hourly Observations for June 20, 2024

Temp ( °F °C ) Dew Point ( °F °C ) Humidity (%) Winds ( mph kmh ) Pressure ( in mb ) Visibility ( mi km ) Precip ( " mm )
12:53 am 00:53 Clear 73 22.8 70 21.1 90 90 Calm 30.25 1025 10 16 0.00 0.00
1:53 am 01:53 Clear 72 22.2 69 20.6 91 91 Calm 30.26 1025 10 16 0.00 0.00
2:53 am 02:53 Clear 70 21.1 68 20 93 93 Calm 30.26 1025 9 14 0.00 0.00
3:53 am 03:53 Clear 69 20.6 67 19.4 93 93 Calm 30.26 1025 10 16 0.00 0.00
4:05 am 04:05 Clear with Mist and Fog 68 20 67 19.4 96 96 Calm 30.27 1025 1 1 0.00 0.00
4:16 am 04:16 Mostly Clear with Mist and Fog 69 20.6 66 18.9 90 90 NNW 5 7 30.27 1025 3 5 0.00 0.00
4:20 am 04:20 Partly Cloudy with Mist and Fog 69 20.6 66 18.9 90 90 NNW 5 7 30.27 1025 2 3 0.00 0.00
4:24 am 04:24 Cloudy with Mist and Fog 69 20.6 67 19.4 93 93 NW 3 6 30.27 1025 1 1 0.00 0.00
4:36 am 04:36 Partly Cloudy with Mist and Fog 69 20.6 68 20 96 96 Calm 30.27 1025 3 5 0.00 0.00
4:53 am 04:53 Mostly Clear 69 20.6 67 19.4 93 93 Calm 30.27 1025 7 11 0.00 0.00
5:53 am 05:53 Clear 68 20 66 18.9 93 93 Calm 30.27 1025 10 16 0.00 0.00
6:35 am 06:35 Sunny with Mist and Fog 68 20 67 19.4 96 96 Calm 30.28 1025 2 3 0.00 0.00
6:53 am 06:53 Sunny 69 20.6 67 19.4 93 93 Calm 30.28 1026 9 14 0.00 0.00
7:53 am 07:53 Sunny 73 22.8 69 20.6 87 87 Calm 30.29 1026 10 16 0.00 0.00
8:53 am 08:53 Sunny 75 23.9 71 21.7 88 88 Calm 30.30 1026 10 16 0.00 0.00
9:53 am 09:53 Sunny 82 27.8 71 21.7 69 69 Calm 30.30 1026 10 16 0.00 0.00
10:53 am 10:53 Mostly Sunny 85 29.4 70 21.1 61 61 Calm 30.30 1026 10 16 0.00 0.00
11:53 am 11:53 Mostly Cloudy 87 30.6 68 20 53 53 WNW 5 7 30.30 1026 10 16 0.00 0.00
12:53 pm 12:53 Sunny 89 31.7 68 20 50 50 NNW 7 11 30.29 1026 10 16 0.00 0.00
1:53 pm 13:53 Sunny 90 32.2 67 19.4 47 47 NNW 5 7 30.28 1025 10 16 0.00 0.00
2:53 pm 14:53 Mostly Cloudy 88 31.1 67 19.4 50 50 WNW 6 9 30.26 1025 10 16 0.00 0.00
3:53 pm 15:53 Mostly Cloudy 90 32.2 66 18.9 45 45 ENE 7 11 30.25 1024 10 16 0.00 0.00
4:53 pm 16:53 Cloudy 90 32.2 66 18.9 45 45 NE 5 7 30.23 1024 10 16 0.00 0.00
5:53 pm 17:53 Mostly Sunny 92 33.3 66 18.9 43 43 Calm 30.22 1023 10 16 0.00 0.00
6:53 pm 18:53 Mostly Sunny 90 32.2 67 19.4 47 47 W 5 7 30.20 1023 10 16 0.00 0.00
7:53 pm 19:53 Mostly Sunny 90 32.2 67 19.4 47 47 WNW 3 6 30.20 1023 10 16 0.00 0.00
8:53 pm 20:53 Sunny 84 28.9 70 21.1 63 63 Calm 30.20 1023 10 16 0.00 0.00
9:53 pm 21:53 Clear 81 27.2 70 21.1 69 69 NNW 3 6 30.21 1023 10 16 0.00 0.00
10:53 pm 22:53 Clear 80 26.7 70 21.1 71 71 Calm 30.23 1024 10 16 0.00 0.00
11:53 pm 23:53 Clear 76 24.4 70 21.1 82 82 Calm 30.23 1024 10 16 0.00 0.00

Powered by Vaisala Xweather